[[{"header":{"parameterUnit":"m.s-1","parameterCategory":1,"la1":30.2991,"la2":30.254,"lo1":-89.0895,"lo2":-89.0444,"dy":0.0017,"dx":0.0017,"nx":28,"ny":28,"refTime":"2023-07-21T03:00:00:Z","depth":0,"parameterNumber":2,"parameterNumberName":"U-component_of_WINDS"},"data":[0,0,0,0,0,0,0,0,0,0,0,0,0,0,0,0,0,0,0,0,0,0,0,0,0,0,0,0,0,0,0,0,0,0,0,0,0,0,0,0,0,0,0,0,0,0,0,0,0,0,0,0,0,0,0,0,0,0,1.4705,1.4706,0,1.4779,1.478,1.4781,1.4786,1.4785,1.4784,1.4783,1.4862,1.4865,1.4868,0,0,0,0,0,0,0,0,0,0,0,0,0,1.4573,1.4575,1.4705,1.4706,1.4707,1.4779,1.478,1.4781,1.4786,1.4785,1.4784,1.4783,1.4861,1.4864,1.4868,0,0,0,0,0,0,0,0,0,0,0,0,0,1.4637,1.4576,1.4705,1.4718,1.472,1.4779,1.478,1.4781,1.4786,1.4785,1.4784,1.4782,1.486,1.4864,1.4868,1.492,0,0,1.4881,1.4883,0,0,0,0,0,0,0,0,1.4633,1.4642,1.4715,1.4717,1.472,1.4772,1.4762,1.4828,1.4786,1.4761,1.4783,1.4782,1.4833,1.484,1.4856,1.4924,1.4927,1.4882,1.4884,1.4886,1.4887,0,0,0,0,0,0,0,1.4629,1.4639,1.4735,1.4716,1.4719,1.4722,1.4729,1.4775,1.4803,1.4763,1.4764,1.4772,1.4834,1.4852,1.4858,1.4928,1.4882,1.4886,1.4888,1.489,1.5043,1.5045,0,0,0,0,0,0,1.4621,1.4635,1.4732,1.4737,1.4672,1.4725,1.4734,1.4756,1.4803,1.4809,1.4773,1.4772,1.4845,1.4853,1.4861,1.4925,1.4886,1.489,1.4893,1.5042,1.5044,1.5045,0,0,0,0,0,0,1.4619,1.463,1.4729,1.4686,1.4699,1.4729,1.4754,1.4758,1.4776,1.481,1.4816,1.4786,1.4845,1.4855,1.4905,1.4928,1.4892,1.4896,1.504,1.5042,1.5044,1.5054,0,0,0,0,0,0,1.4615,1.4629,1.4648,1.4686,1.4701,1.4771,1.4755,1.4761,1.4783,1.4783,1.4824,1.4829,1.4844,1.4899,1.491,1.4933,1.4899,1.5038,1.5041,1.5044,1.5052,1.5056,1.506,0,0,0,0,0,1.461,1.4648,1.4649,1.466,1.4725,1.4772,1.4781,1.4796,1.4785,1.4805,1.4827,1.4828,1.4924,1.4904,1.4916,1.4942,1.5037,1.504,1.5044,1.505,1.5055,1.506,0,0,0,0,0,0,1.4612,1.4653,1.4654,1.4706,1.4736,1.4773,1.4799,1.4802,1.4836,1.4834,1.4853,1.4862,1.4912,1.4932,1.4909,1.4995,1.4979,1.4985,1.498,1.4986,1.499,1.4984,1.4903,0,0,0,0,0,1.4618,1.4652,1.4687,1.4729,1.4744,1.4769,1.479,1.4799,1.4831,1.4844,1.487,1.4902,1.4939,1.4963,1.5,1.5055,1.5065,1.5078,1.5083,1.5086,1.5091,1.5123,1.513,1.5056,1.5056,1.5056,0,0,1.4632,1.4659,1.4679,1.473,1.4754,1.479,1.4779,1.4817,1.4845,1.485,1.4899,1.4919,1.4957,1.501,1.5035,1.5028,1.5114,1.509,1.5092,1.5096,1.5127,1.5134,1.514,1.5059,1.5058,1.5058,0,0,1.4675,1.4698,1.4736,1.4761,1.4797,1.4814,1.4823,1.4861,1.4874,1.4923,1.4929,1.4962,1.5026,1.5052,1.5074,1.5129,1.5132,1.514,1.5162,1.5193,1.5199,1.5204,1.5225,1.5232,1.5145,1.5145,1.5145,0,1.4688,1.4741,1.4756,1.4794,1.4817,1.4823,1.4863,1.4886,1.4933,1.4949,1.4941,1.5022,1.5047,1.5107,1.5121,1.5138,1.515,1.5136,1.5197,1.5202,1.5207,1.5227,1.5235,1.5146,1.5146,1.5146,1.5146,0,1.4755,1.4792,1.4819,1.4863,1.4889,1.4928,1.495,1.4975,1.4983,1.5001,1.5052,1.5083,1.5126,1.5141,1.5149,1.5203,1.5197,1.5193,1.5177,1.5215,1.5234,1.5242,1.5147,1.5147,1.5147,1.5147,0,0,1.4801,1.4854,1.4864,1.4885,1.4926,1.4955,1.4995,1.5037,1.5058,1.5091,1.5126,1.518,1.5176,1.5201,1.5212,1.5239,1.5282,1.5231,1.5232,1.524,1.5345,1.5348,1.5357,1.5284,1.5285,1.5286,1.5342,0,1.485,1.492,1.4935,1.4996,1.5031,1.5038,1.5073,1.5103,1.5121,1.5155,1.5175,1.5214,1.5205,1.522,1.5248,1.5271,1.5303,1.5267,1.5318,1.5319,1.5308,1.5367,1.537,1.5421,1.5349,1.5351,1.5351,0,1.4916,1.4949,1.5013,1.5051,1.5066,1.5097,1.5137,1.5169,1.5204,1.5215,1.5243,1.5252,1.5295,1.5278,1.5338,1.5313,1.5335,1.535,1.5352,1.5358,1.5338,1.5375,1.5438,1.5445,1.5363,1.5362,1.5361,0,1.4944,1.5005,1.5052,1.5069,1.5114,1.5136,1.5156,1.5189,1.5214,1.5249,1.5265,1.5305,1.5328,1.5359,1.5379,1.5364,1.5439,1.5423,1.5451,1.545,1.5466,1.5465,1.5534,1.5479,1.5479,1.5479,1.5479,0,1.4997,1.5036,1.5065,1.5094,1.5139,1.5157,1.5201,1.5221,1.5251,1.5285,1.5294,1.5325,1.5349,1.5385,1.5401,1.5449,1.5459,1.5471,1.5475,1.547,1.5469,1.5485,1.5482,1.5481,1.5481,1.548,1.548,0,1.5036,1.5057,1.5109,1.5147,1.5158,1.5189,1.5223,1.5252,1.527,1.5313,1.5324,1.5354,1.5396,1.5419,1.5472,1.5483,1.5538,1.5539,1.5526,1.5527,1.5554,1.5552,1.5637,1.5649,1.5586,1.5586,1.5587,0,1.5069,1.5099,1.5141,1.5164,1.5184,1.522,1.5245,1.5265,1.529,1.5333,1.5357,1.54,1.5435,1.5503,1.553,1.5571,1.5574,1.5601,1.5581,1.5576,1.5576,1.5574,1.5577,1.5605,1.5606,1.5606,1.5607,0,1.5124,1.5134,1.5168,1.5208,1.5237,1.5269,1.53,1.5319,1.5343,1.5372,1.5415,1.5443,1.5497,1.554,1.5583,1.5606,1.5611,1.5613,1.5622,1.5618,1.5609,1.5615,1.5536,1.5611,1.561,1.561,1.561,1.561,1.5162,1.519,1.5224,1.5263,1.5288,1.5318,1.5347,1.5369,1.5405,1.5451,1.546,1.5506,1.5542,1.56,1.5624,1.5661,1.5656,1.5668,1.5671,1.5674,1.5676,1.5602,1.5669,1.5669,1.5669,1.5669,1.5669,0,1.5219,1.5241,1.5277,1.5321,1.5352,1.5353,1.5388,1.5415,1.5455,1.5487,1.5521,1.5572,1.5614,1.5644,1.5687,1.5711,1.5715,1.5722,1.572,1.5726,1.5678,1.5666,1.5718,1.5718,1.5718,1.5718,1.5718,1.5718,1.5252,1.53,1.5313,1.5374,1.5396,1.544,1.5461,1.5488,1.5514,1.557,1.5604,1.5624,1.5656,1.5701,1.574,1.5748,1.5764,1.5771,1.578,1.5734,1.5729,1.5724,1.5713,1.5774,1.5774,1.5825,1.5825,1.5825]},{"header":{"parameterUnit":"m.s-1","parameterCategory":1,"la1":30.2991,"la2":30.254,"lo1":-89.0895,"lo2":-89.0444,"dy":0.0017,"dx":0.0017,"nx":28,"ny":28,"refTime":"2023-07-21T03:00:00:Z","depth":0,"parameterNumber":3,"parameterNumberName":"V-component_of_WINDS"},"data":[0,0,0,0,0,0,0,0,0,0,0,0,0,0,0,0,0,0,0,0,0,0,0,0,0,0,0,0,0,0,0,0,0,0,0,0,0,0,0,0,0,0,0,0,0,0,0,0,0,0,0,0,0,0,0,0,0,0,1.3125,1.3126,0,1.316,1.3161,1.3161,1.3153,1.3152,1.3151,1.3151,1.3186,1.3188,1.3189,0,0,0,0,0,0,0,0,0,0,0,0,0,1.3047,1.3049,1.3125,1.3126,1.3126,1.316,1.3161,1.3161,1.3153,1.3152,1.3151,1.3151,1.3186,1.3188,1.3189,0,0,0,0,0,0,0,0,0,0,0,0,0,1.3082,1.3049,1.3125,1.3126,1.3126,1.316,1.3161,1.3161,1.3153,1.3152,1.3151,1.315,1.3185,1.3187,1.319,1.3225,0,0,1.3197,1.3198,0,0,0,0,0,0,0,0,1.308,1.3084,1.3125,1.3126,1.3127,1.3151,1.3146,1.3183,1.3153,1.3143,1.3151,1.315,1.3175,1.3178,1.3187,1.3226,1.3228,1.3197,1.3199,1.32,1.32,0,0,0,0,0,0,0,1.3077,1.3083,1.3139,1.3126,1.3127,1.3123,1.3127,1.3153,1.3164,1.3144,1.3143,1.3148,1.3175,1.3185,1.3188,1.3228,1.3197,1.3199,1.3201,1.3202,1.3293,1.3294,0,0,0,0,0,0,1.3075,1.3081,1.3138,1.314,1.31,1.3126,1.313,1.3144,1.3164,1.3166,1.3148,1.3147,1.3181,1.3185,1.3189,1.3228,1.32,1.3202,1.3203,1.3292,1.3293,1.3294,0,0,0,0,0,0,1.3073,1.308,1.3137,1.311,1.3117,1.3128,1.3144,1.3146,1.3155,1.3168,1.3169,1.3156,1.3181,1.3186,1.3215,1.3229,1.3203,1.3205,1.329,1.3292,1.3293,1.3309,0,0,0,0,0,0,1.3071,1.3079,1.3094,1.3111,1.3119,1.3163,1.3145,1.3147,1.3159,1.3158,1.3175,1.3177,1.318,1.3211,1.3217,1.3232,1.3207,1.3289,1.3291,1.3293,1.3307,1.331,1.3314,0,0,0,0,0,1.3068,1.3098,1.3095,1.3102,1.3137,1.3164,1.3168,1.3171,1.3161,1.3174,1.3181,1.3177,1.3227,1.3214,1.3221,1.3237,1.3288,1.3291,1.3293,1.3305,1.331,1.3313,0,0,0,0,0,0,1.3083,1.31,1.3097,1.3133,1.3147,1.3162,1.318,1.3177,1.3194,1.3192,1.3194,1.3198,1.3227,1.3235,1.3221,1.3269,1.3256,1.326,1.3263,1.3267,1.3271,1.3268,1.3209,0,0,0,0,0,1.3091,1.3111,1.3125,1.3155,1.3162,1.317,1.3182,1.3182,1.3197,1.3202,1.3212,1.3226,1.3244,1.3256,1.3274,1.3308,1.331,1.3322,1.3325,1.3328,1.3331,1.3345,1.3349,1.3301,1.3301,1.3301,0,0,1.3107,1.3118,1.3132,1.3158,1.3169,1.3189,1.3175,1.3198,1.3212,1.3206,1.3233,1.324,1.3255,1.3286,1.3299,1.3293,1.3344,1.3331,1.3333,1.3334,1.3348,1.3352,1.3356,1.3303,1.3303,1.3302,0,0,1.3145,1.3157,1.3182,1.3192,1.3208,1.3212,1.3218,1.3233,1.3237,1.3264,1.3259,1.3276,1.3308,1.3318,1.3327,1.3365,1.336,1.337,1.3388,1.3402,1.3406,1.3409,1.342,1.3424,1.3373,1.3373,1.3373,0,1.3163,1.3193,1.3195,1.3217,1.3227,1.3222,1.3245,1.3255,1.3276,1.3283,1.3276,1.3314,1.3324,1.3354,1.3363,1.3372,1.3376,1.3368,1.3405,1.3408,1.3411,1.3421,1.3426,1.3374,1.3374,1.3374,1.3374,0,1.3212,1.3233,1.3251,1.3269,1.3282,1.3305,1.3309,1.3321,1.3319,1.3324,1.3349,1.3361,1.3379,1.3386,1.3387,1.3416,1.3411,1.3404,1.3391,1.3417,1.3426,1.343,1.3376,1.3375,1.3375,1.3375,0,0,1.3263,1.328,1.3286,1.3293,1.3308,1.3324,1.3344,1.3362,1.3371,1.3385,1.3401,1.3426,1.3419,1.3429,1.343,1.3442,1.3467,1.3433,1.3434,1.3437,1.3497,1.3501,1.3505,1.3464,1.3465,1.3465,1.3495,0,1.3301,1.3338,1.3338,1.3372,1.3389,1.3382,1.3399,1.341,1.3413,1.3428,1.3432,1.3449,1.3439,1.3445,1.3457,1.3462,1.3479,1.346,1.3477,1.3478,1.3472,1.3511,1.3516,1.3543,1.3499,1.3499,1.35,0,1.3351,1.3364,1.3399,1.3407,1.3415,1.3431,1.3444,1.3459,1.3469,1.347,1.348,1.3477,1.3496,1.3482,1.3507,1.3494,1.3501,1.3504,1.3505,1.3506,1.349,1.3511,1.3552,1.3556,1.3506,1.3506,1.3505,0,1.3381,1.3408,1.3431,1.3437,1.3449,1.3459,1.3465,1.3474,1.3483,1.3495,1.35,1.3514,1.3522,1.3532,1.3532,1.3522,1.3556,1.3543,1.3556,1.3556,1.3563,1.3562,1.3604,1.357,1.357,1.357,1.357,0,1.3422,1.3443,1.3444,1.3458,1.348,1.3479,1.35,1.3505,1.3512,1.3526,1.3521,1.3534,1.3534,1.3546,1.3547,1.3565,1.3569,1.357,1.3569,1.3569,1.3569,1.3573,1.3571,1.3571,1.3571,1.3571,1.357,0,1.346,1.3461,1.3485,1.3493,1.3496,1.3511,1.3517,1.353,1.3532,1.3549,1.3553,1.3556,1.357,1.3571,1.3588,1.3588,1.3609,1.3608,1.3606,1.3605,1.3617,1.3615,1.3663,1.3668,1.3632,1.3632,1.3632,0,1.3485,1.3501,1.3509,1.3517,1.3523,1.3537,1.3545,1.3544,1.3552,1.3563,1.3573,1.3587,1.3597,1.3619,1.3622,1.3634,1.3632,1.3647,1.3633,1.3632,1.3629,1.3628,1.3628,1.365,1.365,1.365,1.3651,0,1.3529,1.3528,1.3541,1.3552,1.3561,1.3571,1.3579,1.3586,1.3586,1.3595,1.3609,1.3617,1.3632,1.3644,1.3655,1.3659,1.3654,1.3655,1.3658,1.3658,1.3655,1.3654,1.3611,1.3654,1.3653,1.3653,1.3653,1.3653,1.356,1.3572,1.3578,1.3591,1.3597,1.3604,1.3615,1.3617,1.3628,1.364,1.3639,1.3653,1.366,1.3673,1.3678,1.3688,1.3683,1.3689,1.369,1.3691,1.3691,1.3654,1.3691,1.369,1.369,1.369,1.369,0,1.3602,1.3605,1.3616,1.3627,1.3636,1.363,1.3638,1.3646,1.3658,1.3665,1.3674,1.3688,1.3699,1.3702,1.3712,1.3719,1.3717,1.3722,1.3721,1.3721,1.3696,1.3691,1.3723,1.3723,1.3723,1.3723,1.3723,1.3723,1.3624,1.3643,1.3642,1.3662,1.3665,1.3678,1.3683,1.3689,1.3693,1.3709,1.3718,1.3719,1.3723,1.3733,1.3742,1.3743,1.3746,1.3751,1.3751,1.3727,1.3724,1.372,1.3716,1.3752,1.3752,1.3775,1.3775,1.3775]}]]